[[{"header":{"parameterUnit":"m.s-1","parameterCategory":1,"la1":30.2991,"la2":30.254,"lo1":-89.0895,"lo2":-89.0444,"dy":0.0017,"dx":0.0017,"nx":28,"ny":28,"refTime":"2025-12-31T09:00:00:Z","depth":0,"parameterNumber":2,"parameterNumberName":"U-component_of_WINDS"},"data":[0,0,0,0,0,0,0,0,0,0,0,0,0,0,0,0,0,0,0,0,0,0,0,0,0,0,0,0,0,0,0,0,0,0,0,0,0,0,0,0,0,0,0,0,0,0,0,0,0,0,0,0,0,0,0,0,0,0,1.9078,1.908,0,1.9304,1.9307,1.9309,1.9338,1.9336,1.9333,1.9331,1.9568,1.9577,1.9585,0,0,0,0,0,0,0,0,0,0,0,0,0,1.8676,1.8683,1.9078,1.9081,1.9083,1.9304,1.9307,1.931,1.9338,1.9335,1.9333,1.933,1.9566,1.9576,1.9586,0,0,0,0,0,0,0,0,0,0,0,0,0,1.8871,1.8686,1.9077,1.9124,1.913,1.9303,1.9307,1.9311,1.9339,1.9335,1.9332,1.9329,1.9562,1.9575,1.9587,1.9731,0,0,1.9625,1.9631,0,0,0,0,0,0,0,0,1.886,1.8886,1.9114,1.9121,1.9128,1.9289,1.9252,1.9452,1.934,1.926,1.9331,1.9327,1.9479,1.9498,1.9548,1.9742,1.9752,1.9626,1.9634,1.9639,1.9643,0,0,0,0,0,0,0,1.8847,1.8876,1.9168,1.9118,1.9126,1.9135,1.916,1.929,1.9385,1.9266,1.9269,1.9295,1.9482,1.9535,1.9553,1.9755,1.9626,1.9637,1.9645,1.965,2.0081,2.0085,0,0,0,0,0,0,1.8824,1.8865,1.916,1.9174,1.8983,1.9145,1.9172,1.9241,1.9384,1.9402,1.9298,1.9296,1.9516,1.9539,1.9562,1.9741,1.9639,1.9651,1.9658,2.0077,2.0082,2.0086,0,0,0,0,0,0,1.8815,1.885,1.9151,1.9021,1.906,1.9156,1.9233,1.9247,1.9301,1.9407,1.9425,1.9335,1.9514,1.9544,1.9689,1.9749,1.9657,1.9668,2.0072,2.0078,2.0084,2.0098,0,0,0,0,0,0,1.8803,1.8846,1.89,1.9021,1.9066,1.9272,1.9237,1.9254,1.9322,1.9321,1.9447,1.9464,1.9514,1.967,1.9701,1.9765,1.9678,2.0067,2.0075,2.0082,2.0093,2.0104,2.0113,0,0,0,0,0,1.8789,1.8896,1.8903,1.8939,1.9136,1.9276,1.9302,1.9355,1.9326,1.9383,1.9451,1.946,1.9737,1.9684,1.972,1.9788,2.0064,2.0073,2.0081,2.0088,2.0102,2.0113,0,0,0,0,0,0,1.8782,1.8913,1.8922,1.9071,1.9162,1.928,1.9352,1.9367,1.9469,1.9464,1.9527,1.9556,1.9697,1.9757,1.9696,1.9936,1.9898,1.9915,1.9891,1.9905,1.9915,1.9898,1.9688,0,0,0,0,0,1.8797,1.8898,1.9008,1.913,1.9174,1.9255,1.9318,1.9351,1.9449,1.9487,1.9567,1.9662,1.9771,1.9841,1.9947,2.0101,2.013,2.0166,2.0177,2.0184,2.0198,2.0286,2.0304,2.0115,2.0115,2.0115,0,0,1.8831,1.8915,1.8975,1.913,1.9204,1.9309,1.9288,1.9399,1.9478,1.9505,1.9646,1.9707,1.9818,1.9968,2.0039,2.0023,2.0257,2.0196,2.0201,2.0211,2.0297,2.0315,2.0331,2.0121,2.012,2.0119,0,0,1.8946,1.9019,1.9129,1.9203,1.9315,1.9369,1.9395,1.9511,1.9553,1.9695,1.9717,1.9813,1.9999,2.0077,2.0141,2.0287,2.03,2.032,2.0374,2.0459,2.0474,2.0487,2.0541,2.0559,2.0333,2.0333,2.0333,0,1.8975,1.9132,1.9184,1.9295,1.9363,1.9391,1.9504,1.9574,1.9715,1.9763,1.9743,1.9977,2.0053,2.0223,2.0258,2.0309,2.0343,2.0306,2.0467,2.0481,2.0495,2.0546,2.0566,2.0335,2.0335,2.0335,2.0334,0,1.9162,1.927,1.9346,1.948,1.9557,1.9668,1.9739,1.9812,1.9838,1.9894,2.004,2.0132,2.0258,2.0301,2.0328,2.0475,2.0462,2.0454,2.0417,2.0513,2.0563,2.0583,2.0337,2.0337,2.0336,2.0336,0,0,1.9279,1.944,1.9467,1.9529,1.9655,1.9741,1.9854,1.9976,2.0037,2.0134,2.0232,2.0388,2.0382,2.0455,2.0492,2.0566,2.0677,2.0549,2.0553,2.0571,2.0847,2.0853,2.0875,2.0686,2.069,2.0693,2.0838,0,1.9409,1.961,1.9661,1.9833,1.9935,1.9963,2.0062,2.0151,2.0207,2.0304,2.0366,2.0477,2.0459,2.0503,2.0578,2.0648,2.0734,2.0638,2.078,2.0785,2.0752,2.09,2.0907,2.1039,2.0857,2.0861,2.0863,0,1.9588,1.9687,1.9869,1.9982,2.0027,2.0115,2.0231,2.0322,2.0424,2.046,2.0541,2.0571,2.0693,2.065,2.0819,2.0753,2.0815,2.0858,2.0864,2.088,2.083,2.0922,2.1082,2.1102,2.0894,2.0892,2.0889,0,1.9656,1.9835,1.9968,2.0019,2.0155,2.0216,2.0276,2.0375,2.0445,2.0547,2.0593,2.0709,2.0772,2.0862,2.0923,2.0886,2.1089,2.105,2.1123,2.1122,2.1165,2.1162,2.1339,2.1203,2.1203,2.1202,2.1202,0,1.9797,1.9907,2.0,2.0082,2.0207,2.0265,2.0389,2.0449,2.0537,2.0633,2.0664,2.0754,2.0828,2.0929,2.0978,2.1112,2.114,2.1174,2.1186,2.1172,2.1167,2.1213,2.1206,2.1208,2.1207,2.1205,2.1205,0,1.9895,1.9961,2.0107,2.0223,2.0255,2.0342,2.0442,2.0524,2.058,2.0701,2.0733,2.0823,2.0942,2.1012,2.1163,2.1196,2.1345,2.1353,2.131,2.1316,2.1386,2.1378,2.1599,2.1632,2.1473,2.1474,2.1475,0,1.998,2.0066,2.0191,2.0256,2.0316,2.0421,2.0492,2.0554,2.0627,2.0751,2.0818,2.0939,2.1039,2.1229,2.131,2.1426,2.1437,2.1506,2.1455,2.1439,2.144,2.1434,2.1444,2.1515,2.1517,2.1518,2.1519,0,2.0126,2.0155,2.0255,2.0368,2.0452,2.0544,2.0636,2.0688,2.0765,2.0847,2.0968,2.1046,2.12,2.1321,2.1444,2.1508,2.1528,2.1534,2.1558,2.1545,2.1517,2.1535,2.1335,2.1529,2.1528,2.1527,2.1527,2.1527,2.0222,2.03,2.0399,2.0511,2.0586,2.0671,2.0754,2.082,2.0922,2.1051,2.1082,2.121,2.1313,2.148,2.1547,2.165,2.1638,2.1672,2.1681,2.1688,2.1691,2.15,2.1672,2.1672,2.1672,2.1672,2.1672,0,2.037,2.0436,2.0538,2.0664,2.0753,2.0761,2.0863,2.0937,2.1049,2.1142,2.124,2.1381,2.1498,2.1587,2.1708,2.1774,2.1786,2.1804,2.18,2.1815,2.1694,2.1662,2.1792,2.1792,2.1792,2.1792,2.1792,2.1792,2.0458,2.059,2.0631,2.0802,2.0867,2.0992,2.105,2.113,2.1204,2.1359,2.1456,2.1513,2.1605,2.1733,2.1842,2.1866,2.191,2.1926,2.1951,2.1836,2.1823,2.1811,2.1782,2.1935,2.1935,2.2064,2.2065,2.2066]},{"header":{"parameterUnit":"m.s-1","parameterCategory":1,"la1":30.2991,"la2":30.254,"lo1":-89.0895,"lo2":-89.0444,"dy":0.0017,"dx":0.0017,"nx":28,"ny":28,"refTime":"2025-12-31T09:00:00:Z","depth":0,"parameterNumber":3,"parameterNumberName":"V-component_of_WINDS"},"data":[0,0,0,0,0,0,0,0,0,0,0,0,0,0,0,0,0,0,0,0,0,0,0,0,0,0,0,0,0,0,0,0,0,0,0,0,0,0,0,0,0,0,0,0,0,0,0,0,0,0,0,0,0,0,0,0,0,0,3.3653,3.3655,0,3.379,3.3791,3.3793,3.3766,3.3764,3.3761,3.3759,3.3897,3.3903,3.3909,0,0,0,0,0,0,0,0,0,0,0,0,0,3.3368,3.3373,3.3653,3.3655,3.3656,3.3789,3.3791,3.3793,3.3767,3.3764,3.3761,3.3758,3.3895,3.3902,3.3909,0,0,0,0,0,0,0,0,0,0,0,0,0,3.3497,3.3375,3.3653,3.3659,3.3661,3.3789,3.3791,3.3794,3.3767,3.3764,3.376,3.3757,3.3893,3.3901,3.391,3.4039,0,0,3.3938,3.3942,0,0,0,0,0,0,0,0,3.349,3.3507,3.3657,3.3659,3.3662,3.3757,3.3741,3.3876,3.3768,3.3727,3.3759,3.3755,3.3853,3.3865,3.3899,3.4046,3.4052,3.3938,3.3944,3.3948,3.395,0,0,0,0,0,0,0,3.3481,3.3501,3.3707,3.3659,3.3662,3.3655,3.3669,3.3767,3.3809,3.373,3.3729,3.3745,3.3854,3.389,3.3902,3.4054,3.3938,3.3946,3.3952,3.3955,3.4314,3.4318,0,0,0,0,0,0,3.347,3.3494,3.3703,3.3711,3.3565,3.3663,3.3679,3.373,3.3808,3.3816,3.3748,3.3744,3.3877,3.3892,3.3907,3.4064,3.3948,3.3956,3.3961,3.431,3.4315,3.4319,0,0,0,0,0,0,3.3464,3.3489,3.3697,3.3602,3.3628,3.3672,3.373,3.3735,3.3771,3.3822,3.3829,3.3778,3.3875,3.3894,3.4007,3.4068,3.396,3.3968,3.4305,3.4311,3.4317,3.4378,0,0,0,0,0,0,3.3456,3.3487,3.3536,3.3604,3.3634,3.3796,3.3733,3.374,3.3787,3.3782,3.3851,3.3859,3.3873,3.3994,3.4016,3.4079,3.3975,3.43,3.4308,3.4315,3.4371,3.4386,3.4399,0,0,0,0,0,3.3446,3.3548,3.3539,3.3564,3.3697,3.3799,3.3816,3.3831,3.3792,3.3842,3.3875,3.3857,3.4058,3.4006,3.403,3.4097,3.4296,3.4306,3.4315,3.4365,3.4383,3.4398,0,0,0,0,0,0,3.3486,3.3556,3.3548,3.3675,3.3731,3.3795,3.3859,3.3849,3.3918,3.391,3.3924,3.394,3.4055,3.4087,3.4027,3.4226,3.4171,3.4186,3.4201,3.4219,3.4232,3.4222,3.3983,0,0,0,0,0,3.3509,3.3587,3.3645,3.3751,3.378,3.3815,3.386,3.3866,3.3925,3.3948,3.3989,3.4046,3.4122,3.4172,3.4245,3.4375,3.439,3.4433,3.4447,3.4458,3.4471,3.4543,3.4563,3.435,3.435,3.435,0,0,3.3559,3.3607,3.3655,3.376,3.3805,3.3885,3.3835,3.3921,3.3981,3.3961,3.4071,3.4103,3.4168,3.429,3.4346,3.432,3.4533,3.447,3.4478,3.4485,3.4555,3.4575,3.4592,3.4357,3.4355,3.4354,0,0,3.369,3.3735,3.3829,3.3875,3.3943,3.3965,3.3988,3.4053,3.4074,3.4184,3.4172,3.4242,3.4372,3.442,3.4461,3.4611,3.4597,3.4634,3.4706,3.4776,3.4793,3.4808,3.4862,3.4881,3.4646,3.4646,3.4647,0,3.3743,3.3864,3.3878,3.3966,3.4013,3.4,3.4095,3.4139,3.4227,3.426,3.4229,3.4394,3.4436,3.457,3.4607,3.464,3.4666,3.4626,3.479,3.4805,3.4819,3.4871,3.4891,3.465,3.465,3.465,3.4649,0,3.3926,3.401,3.4077,3.4164,3.4218,3.431,3.4337,3.439,3.4392,3.4418,3.453,3.4581,3.4664,3.4696,3.4698,3.4831,3.4813,3.4786,3.4732,3.4843,3.4892,3.4912,3.4656,3.4655,3.4654,3.4653,0,0,3.4086,3.418,3.4205,3.4245,3.432,3.4385,3.4475,3.4558,3.4603,3.4664,3.4741,3.4852,3.4828,3.4875,3.4882,3.4944,3.506,3.4909,3.4911,3.4936,3.521,3.523,3.5253,3.5051,3.5055,3.5058,3.5205,0,3.4225,3.4386,3.4402,3.4546,3.4624,3.4613,3.4692,3.4747,3.4773,3.4843,3.4871,3.495,3.4912,3.494,3.5001,3.5033,3.5115,3.5023,3.5123,3.5126,3.5108,3.5279,3.53,3.5436,3.5224,3.5227,3.5229,0,3.4409,3.4477,3.463,3.4694,3.4728,3.4799,3.4876,3.4942,3.5004,3.5019,3.5071,3.5071,3.5164,3.5106,3.5234,3.5171,3.5213,3.5235,3.524,3.5251,3.5185,3.5294,3.548,3.55,3.526,3.5257,3.5255,0,3.4512,3.4641,3.475,3.4784,3.4862,3.4912,3.4947,3.5005,3.5054,3.5121,3.5152,3.5229,3.5271,3.533,3.535,3.5305,3.5478,3.5421,3.5493,3.5493,3.5531,3.5528,3.5726,3.5556,3.5556,3.5555,3.5555,0,3.4666,3.476,3.4797,3.4864,3.4969,3.4985,3.5089,3.5121,3.5172,3.5245,3.5239,3.5307,3.5329,3.5401,3.5416,3.5521,3.554,3.5554,3.5558,3.5556,3.5554,3.5584,3.5575,3.5561,3.556,3.5559,3.5558,0,3.4799,3.4827,3.4945,3.501,3.5028,3.5103,3.5158,3.5222,3.5247,3.5339,3.5362,3.5401,3.5486,3.5511,3.5612,3.5623,3.5746,3.574,3.5725,3.5726,3.5797,3.579,3.6021,3.6053,3.5861,3.5863,3.5865,0,3.4895,3.4968,3.5041,3.5089,3.5126,3.5205,3.5255,3.5274,3.5326,3.5402,3.5457,3.554,3.5608,3.5743,3.5781,3.5858,3.5854,3.593,3.5866,3.5862,3.5857,3.5852,3.586,3.5942,3.5944,3.5946,3.5947,0,3.5064,3.5075,3.5148,3.5227,3.5287,3.5349,3.5409,3.5449,3.5476,3.5535,3.5622,3.5675,3.5779,3.5862,3.594,3.5975,3.5967,3.5967,3.5988,3.5987,3.5976,3.5984,3.5759,3.5962,3.596,3.5959,3.5959,3.5958,3.5183,3.5247,3.5309,3.539,3.5437,3.5494,3.5558,3.5592,3.5664,3.5751,3.5758,3.5852,3.5911,3.6016,3.6055,3.6129,3.6107,3.6137,3.6144,3.6152,3.6158,3.5964,3.6143,3.6143,3.6142,3.6142,3.6142,0,3.5352,3.5392,3.5467,3.5551,3.5616,3.5602,3.5668,3.5722,3.5805,3.5862,3.593,3.6029,3.611,3.6154,3.6235,3.6285,3.6283,3.6305,3.6302,3.6311,3.6173,3.6147,3.6306,3.6306,3.6306,3.6306,3.6306,3.6305,3.5448,3.5556,3.5575,3.5706,3.5745,3.5838,3.5876,3.5928,3.5974,3.6086,3.6154,3.6182,3.6234,3.6318,3.6392,3.6402,3.6432,3.6458,3.6466,3.6337,3.632,3.6304,3.628,3.6464,3.6464,3.6598,3.6599,3.66]}]]